TimeEST,TemperatureF,Dew PointF,Humidity,Sea Level PressureIn,VisibilityMPH,Wind Direction,Wind SpeedMPH,Gust SpeedMPH,PrecipitationIn,Events,Conditions,WindDirDegrees,DateUTC
12:54 AM,30.9,30.0,96,30.44,8.0,Calm,Calm,-,N/A,,Clear,0,2013-01-08 05:54:00
1:54 AM,33.1,32.0,96,30.44,7.0,Calm,Calm,-,N/A,,Clear,0,2013-01-08 06:54:00
2:54 AM,33.1,32.0,96,30.44,7.0,Calm,Calm,-,N/A,,Clear,0,2013-01-08 07:54:00
3:54 AM,32.0,30.9,96,30.43,6.0,Calm,Calm,-,N/A,,Clear,0,2013-01-08 08:54:00
4:54 AM,35.1,33.1,92,30.42,8.0,Calm,Calm,-,N/A,,Clear,0,2013-01-08 09:54:00
5:54 AM,34.0,33.1,96,30.43,7.0,Calm,Calm,-,N/A,,Clear,0,2013-01-08 10:54:00
6:54 AM,30.9,30.0,96,30.45,8.0,Calm,Calm,-,N/A,,Clear,0,2013-01-08 11:54:00
7:54 AM,34.0,30.9,89,30.46,10.0,East,5.8,-,N/A,,Clear,90,2013-01-08 12:54:00
8:54 AM,46.0,34.0,63,30.47,10.0,Calm,Calm,-,N/A,,Clear,0,2013-01-08 13:54:00
9:54 AM,48.9,34.0,56,30.47,10.0,NNE,3.5,-,N/A,,Clear,30,2013-01-08 14:54:00
10:54 AM,55.9,33.1,42,30.46,10.0,East,5.8,-,N/A,,Clear,100,2013-01-08 15:54:00
11:54 AM,60.1,33.1,36,30.43,10.0,East,5.8,-,N/A,,Clear,90,2013-01-08 16:54:00
12:54 PM,61.0,33.1,35,30.39,10.0,ESE,10.4,-,N/A,,Clear,120,2013-01-08 17:54:00
1:54 PM,61.0,32.0,34,30.38,10.0,SE,8.1,-,N/A,,Clear,140,2013-01-08 18:54:00
2:54 PM,61.0,27.0,27,30.39,10.0,ESE,8.1,-,N/A,,Scattered Clouds,120,2013-01-08 19:54:00
3:54 PM,60.1,30.9,33,30.39,10.0,ESE,9.2,-,N/A,,Mostly Cloudy,120,2013-01-08 20:54:00
4:54 PM,55.9,30.9,39,30.39,10.0,ESE,3.5,-,N/A,,Scattered Clouds,110,2013-01-08 21:54:00
5:54 PM,51.1,30.9,46,30.40,10.0,Calm,Calm,-,N/A,,Overcast,0,2013-01-08 22:54:00
6:54 PM,48.9,30.9,50,30.42,10.0,Calm,Calm,-,N/A,,Clear,0,2013-01-08 23:54:00
7:54 PM,50.0,30.9,48,30.41,10.0,Calm,Calm,-,N/A,,Clear,0,2013-01-09 00:54:00
8:54 PM,46.0,32.0,58,30.41,6.0,Calm,Calm,-,N/A,,Haze,0,2013-01-09 01:54:00
8:59 PM,44.6,32.0,61,30.41,1.2,Calm,Calm,-,N/A,,Haze,0,2013-01-09 01:59:00
9:07 PM,46.4,32.0,57,30.41,0.2,Calm,Calm,-,N/A,,Haze,0,2013-01-09 02:07:00
9:14 PM,44.6,32.0,61,30.41,0.5,Calm,Calm,-,N/A,,Haze,0,2013-01-09 02:14:00
9:18 PM,46.4,32.0,57,30.40,1.0,Calm,Calm,-,N/A,,Haze,0,2013-01-09 02:18:00
9:22 PM,46.4,32.0,57,30.40,4.0,Calm,Calm,-,N/A,,Haze,0,2013-01-09 02:22:00
9:50 PM,44.6,32.0,61,30.40,1.2,Calm,Calm,-,N/A,,Haze,0,2013-01-09 02:50:00
9:54 PM,43.0,32.0,65,30.40,0.2,Calm,Calm,-,N/A,,Haze,0,2013-01-09 02:54:00
10:27 PM,44.6,32.0,61,30.40,2.0,Calm,Calm,-,N/A,,Haze,0,2013-01-09 03:27:00
10:34 PM,46.4,32.0,57,30.40,9.0,Calm,Calm,-,N/A,,Clear,0,2013-01-09 03:34:00
10:44 PM,44.6,32.0,61,30.41,1.2,Calm,Calm,-,N/A,,Haze,0,2013-01-09 03:44:00
10:52 PM,44.6,32.0,61,30.41,0.2,Calm,Calm,-,N/A,,Haze,0,2013-01-09 03:52:00
10:54 PM,44.1,32.0,63,30.41,0.2,Calm,Calm,-,N/A,,Haze,0,2013-01-09 03:54:00
11:23 PM,46.4,30.2,53,30.41,0.2,Calm,Calm,-,N/A,,Haze,0,2013-01-09 04:23:00
11:51 PM,44.6,32.0,61,30.40,1.8,Calm,Calm,-,N/A,,Haze,0,2013-01-09 04:51:00
11:54 PM,44.1,32.0,63,30.40,2.0,Calm,Calm,-,N/A,,Haze,0,2013-01-09 04:54:00